This is the latest recevied weather packets stored in our database for station/object EB2EMZ-14. If no packets are shown the sender has not sent any weather packets the latest 10 day(s).
| Time | Temp. | Humidity | Pressure | Rain* | Wind** | Luminosity | Snow |
|---|---|---|---|---|---|---|---|
| 1778071211 | 16.11° C | 61% | 1012.7 hPa | 0 mm | - | 0 W/m² | - |
| 1778070911 | 16.11° C | 61% | 1012.8 hPa | 0 mm | - | 0 W/m² | - |
| 1778070611 | 16.11° C | 61% | 1012.7 hPa | 0 mm | - | 0 W/m² | - |
| 1778070312 | 15.56° C | 63% | 1012.8 hPa | 0 mm | - | 0 W/m² | - |
| 1778070010 | 15° C | 64% | 1012.6 hPa | 0 mm | - | 0 W/m² | - |
| 1778069710 | 15° C | 64% | 1012.7 hPa | 0 mm | - | 0 W/m² | - |
| 1778069410 | 14.44° C | 64% | 1012.8 hPa | 0 mm | - | 0 W/m² | - |
| 1778069111 | 15° C | 63% | 1012.8 hPa | 0 mm | - | 0 W/m² | - |
| 1778068810 | 15° C | 61% | 1012.7 hPa | 0 mm | - | 0 W/m² | - |
| 1778068510 | 15° C | 60% | 1012.7 hPa | 0 mm | - | 0 W/m² | - |
| 1778068210 | 15.56° C | 59% | 1012.7 hPa | 0 mm | - | 0 W/m² | - |
| 1778067910 | 16.67° C | 57% | 1012.8 hPa | 0 mm | - | 0 W/m² | - |
| 1778067610 | 17.78° C | 56% | 1012.7 hPa | 0 mm | - | 0 W/m² | - |
| 1778067310 | 18.89° C | 55% | 1012.8 hPa | 0 mm | - | 0 W/m² | - |
| 1778067010 | 19.44° C | 54% | 1012.6 hPa | 0 mm | - | 0 W/m² | - |
| 1778066710 | 19.44° C | 54% | 1012.5 hPa | 0 mm | - | 0 W/m² | - |
| 1778066410 | 19.44° C | 56% | 1012.7 hPa | 0 mm | - | 0 W/m² | - |
| 1778066110 | 18.89° C | 59% | 1012.6 hPa | 0 mm | - | 0 W/m² | - |
| 1778065810 | 17.78° C | 58% | 1012.7 hPa | 0 mm | - | 0 W/m² | - |
| 1778065510 | 17.78° C | 57% | 1012.8 hPa | 0 mm | - | 0 W/m² | - |
| 1778065210 | 18.33° C | 58% | 1012.9 hPa | 0 mm | - | 0 W/m² | - |
| 1778064910 | 18.33° C | 59% | 1012.5 hPa | 0 mm | - | 0 W/m² | - |
| 1778064610 | 17.78° C | 59% | 1012.6 hPa | 0 mm | - | 0 W/m² | - |
| 1778064311 | 17.22° C | 59% | 1012.6 hPa | 0 mm | - | 0 W/m² | - |
| 1778064009 | 17.22° C | 58% | 1012.6 hPa | 0 mm | - | 0 W/m² | - |
* Rain latest hour (hover to see other rain measurements)
** Current wind speed in m/s (hover to see current wind gust speed)